| time (UTC) | temp F | wind direction | speed MPH | gust MPH | rain 1hr in | rain 24hr in | rain mn in | humidity % | barometer mb |
| 20260905171339 | 75 | 135 | 2.0 | 4.0 | 0.00 | 0.00 | 0.00 | 38 | 1016.1 |
| 20260905170519 | 76 | 135 | 2.0 | 4.0 | 0.00 | 0.00 | 0.00 | 34 | 1016.1 |
| 20260905165539 | 77 | 135 | 2.0 | 9.0 | 0.00 | 0.00 | 0.00 | 34 | 1015.8 |
| 20260905164657 | 78 | 135 | 2.0 | 5.0 | 0.00 | 0.00 | 0.00 | 35 | 1015.5 |
| 20260905163818 | 78 | 135 | 3.0 | 7.0 | 0.00 | 0.00 | 0.00 | 36 | 1015.4 |
| 20260905162836 | 81 | 135 | 3.0 | 7.0 | 0.00 | 0.00 | 0.00 | 34 | 1014.8 |
| 20260905161036 | 85 | 135 | 3.0 | 7.0 | 0.00 | 0.00 | 0.00 | 28 | 1014.3 |
| 20260905160134 | 88 | 0.0 | 2.0 | 0.00 | 0.00 | 0.00 | 21 | 1013.5 | |
| 20260905155233 | 88 | 0.0 | 2.0 | 0.00 | 0.00 | 0.00 | 19 | 1013.1 | |
| 20260905154333 | 89 | 0.0 | 1.0 | 0.00 | 0.00 | 0.00 | 18 | 1013.0 | |
| 20260905153402 | 89 | 0.0 | 2.0 | 0.00 | 0.00 | 0.00 | 16 | 1012.9 | |
| 20260905152501 | 90 | 0.0 | 2.0 | 0.00 | 0.00 | 0.00 | 15 | 1012.6 | |
| 20260905151600 | 91 | 0.0 | 2.0 | 0.00 | 0.00 | 0.00 | 13 | 1012.9 | |
| 20260905150720 | 91 | 135 | 1.0 | 2.0 | 0.00 | 0.00 | 0.00 | 11 | 1012.7 |
| 20260905145759 | 92 | 135 | 2.0 | 2.0 | 0.00 | 0.00 | 0.00 | 11 | 1012.8 |
| 20260905144858 | 92 | 135 | 0.0 | 2.0 | 0.00 | 0.00 | 0.00 | 10 | 1013.0 |
| 20260905143057 | 92 | 113 | 2.0 | 6.0 | 0.00 | 0.00 | 0.00 | 1013.1 | |
| 20260905142156 | 93 | 158 | 2.0 | 4.0 | 0.00 | 0.00 | 0.00 | 1013.1 | |
| 20260905141255 | 93 | 158 | 2.0 | 4.0 | 0.00 | 0.00 | 0.00 | 1013.0 | |
| 20260905140355 | 94 | 135 | 1.0 | 3.0 | 0.00 | 0.00 | 0.00 | 1013.1 | |
| 20260905135514 | 95 | 0.0 | 2.0 | 0.00 | 0.00 | 0.00 | 1013.0 | ||
| 20260905134553 | 97 | 1.0 | 4.0 | 0.00 | 0.00 | 0.00 | 1013.1 | ||
| 20260905133653 | 98 | 113 | 2.0 | 5.0 | 0.00 | 0.00 | 0.00 | 1013.2 | |
| 20260905132752 | 97 | 0.0 | 2.0 | 0.00 | 0.00 | 0.00 | 1013.4 | ||
| 20260905131851 | 97 | 135 | 1.0 | 5.0 | 0.00 | 0.00 | 0.00 | 1013.4 | |
| 20260905130020 | 98 | 135 | 1.0 | 2.0 | 0.00 | 0.00 | 0.00 | 1013.4 | |
| 20260905125121 | 98 | 135 | 2.0 | 8.0 | 0.00 | 0.00 | 0.00 | 1013.4 | |
| 20260905124219 | 98 | 135 | 1.0 | 2.0 | 0.00 | 0.00 | 0.00 | 1013.6 | |
| 20260905123320 | 98 | 135 | 2.0 | 3.0 | 0.00 | 0.00 | 0.00 | 1013.5 | |
| 20260905122418 | 97 | 158 | 4.0 | 7.0 | 0.00 | 0.00 | 0.00 | 1013.5 | |
| 20260905121517 | 97 | 0.0 | 1.0 | 0.00 | 0.00 | 0.00 | 1013.6 | ||
| 20260905120618 | 98 | 0.0 | 2.0 | 0.00 | 0.00 | 0.00 | 1013.7 | ||
| 20260905115736 | 98 | 0.0 | 3.0 | 0.00 | 0.00 | 0.00 | 1013.8 | ||
| 20260905114835 | 98 | 135 | 0.0 | 4.0 | 0.00 | 0.00 | 0.00 | 1014.0 | |
| 20260905113914 | 98 | 135 | 1.0 | 3.0 | 0.00 | 0.00 | 0.00 | 1014.1 | |
| 20260905112133 | 98 | 158 | 1.0 | 2.0 | 0.00 | 0.00 | 0.00 | 1014.0 | |
| 20260905111212 | 98 | 158 | 2.0 | 5.0 | 0.00 | 0.00 | 0.00 | 1014.0 | |
| 20260905110313 | 97 | 113 | 1.0 | 4.0 | 0.00 | 0.00 | 0.00 | 1014.2 | |
| 20260905105411 | 99 | 158 | 2.0 | 4.0 | 0.00 | 0.00 | 0.00 | 1014.2 | |
| 20260905104511 | 98 | 0.0 | 2.0 | 0.00 | 0.00 | 0.00 | 1014.4 | ||
| 20260905103611 | 98 | 1.0 | 2.0 | 0.00 | 0.00 | 0.00 | 1014.5 | ||
| 20260905102710 | 97 | 0.0 | 2.0 | 0.00 | 0.00 | 0.00 | 1014.5 | ||
| 20260905101810 | 98 | 158 | 2.0 | 4.0 | 0.00 | 0.00 | 0.00 | 1014.7 | |
| 20260905100909 | 97 | 135 | 1.0 | 3.0 | 0.00 | 0.00 | 0.00 | 1014.7 | |
| 20260905095107 | 96 | 135 | 2.0 | 6.0 | 0.00 | 0.00 | 0.00 | 1014.8 | |
| 20260905094206 | 96 | 135 | 1.0 | 2.0 | 0.00 | 0.00 | 0.00 | 1014.9 | |
| 20260905093305 | 95 | 158 | 2.0 | 4.0 | 0.00 | 0.00 | 0.00 | 1015.0 | |
| 20260905092424 | 95 | 2.0 | 5.0 | 0.00 | 0.00 | 0.00 | 1015.1 | ||
| 20260905091524 | 95 | 135 | 2.0 | 4.0 | 0.00 | 0.00 | 0.00 | 11 | 1015.1 |
| 20260905090603 | 94 | 135 | 2.0 | 6.0 | 0.00 | 0.00 | 0.00 | 11 | 1015.2 |
| 20260905085723 | 94 | 0.0 | 3.0 | 0.00 | 0.00 | 0.00 | 14 | 1015.4 | |
| 20260905084802 | 93 | 137 | 2.0 | 6.0 | 0.00 | 0.00 | 0.00 | 14 | 1015.5 |
| 20260905083922 | 91 | 135 | 1.0 | 2.0 | 0.00 | 0.00 | 0.00 | 19 | 1015.9 |
| 20260905082100 | 90 | 0.0 | 2.0 | 0.00 | 0.00 | 0.00 | 20 | 1015.9 | |
| 20260905081220 | 88 | 135 | 1.0 | 3.0 | 0.00 | 0.00 | 0.00 | 23 | 1015.8 |
| 20260905080402 | 86 | 0.0 | 2.0 | 0.00 | 0.00 | 0.00 | 26 | 1015.9 | |
| 20260905075358 | 85 | 1.0 | 3.0 | 0.00 | 0.00 | 0.00 | 28 | 1016.0 | |
| 20260905074519 | 83 | 0.0 | 2.0 | 0.00 | 0.00 | 0.00 | 33 | 1016.0 | |
| 20260905073617 | 82 | 158 | 1.0 | 2.0 | 0.00 | 0.00 | 0.00 | 34 | 1016.1 |
| 20260905072656 | 81 | 2.0 | 4.0 | 0.00 | 0.00 | 0.00 | 36 | 1016.1 | |
| 20260905071755 | 81 | 135 | 3.0 | 6.0 | 0.00 | 0.00 | 0.00 | 37 | 1016.1 |
| 20260905070856 | 81 | 158 | 1.0 | 5.0 | 0.00 | 0.00 | 0.00 | 38 | 1016.1 |
| 20260905065053 | 80 | 0.0 | 2.0 | 0.00 | 0.00 | 0.00 | 42 | 1016.0 | |
| 20260905064153 | 80 | 113 | 1.0 | 3.0 | 0.00 | 0.00 | 0.00 | 43 | 1016.0 |
| 20260905063314 | 80 | 0.0 | 2.0 | 0.00 | 0.00 | 0.00 | 47 | 1016.0 | |
| 20260905062353 | 78 | 0.0 | 2.0 | 0.00 | 0.00 | 0.00 | 53 | 1016.0 | |
| 20260905061511 | 76 | 135 | 2.0 | 3.0 | 0.00 | 0.00 | 0.00 | 56 | 1015.9 |
| 20260905060550 | 75 | 0.0 | 2.0 | 0.00 | 0.00 | 0.00 | 62 | 1016.1 | |
| 20260905055649 | 72 | 1.0 | 3.0 | 0.00 | 0.00 | 0.00 | 66 | 1016.0 | |
| 20260905054748 | 71 | 0.0 | 2.0 | 0.00 | 0.00 | 0.00 | 71 | 1016.0 | |
| 20260905053848 | 67 | 0.0 | 2.0 | 0.00 | 0.00 | 0.00 | 80 | 1016.0 | |
| 20260905052047 | 64 | 0.0 | 0.0 | 0.00 | 0.00 | 0.00 | 84 | 1016.0 | |
| 20260905051208 | 63 | 0.0 | 0.0 | 0.00 | 0.00 | 0.00 | 85 | 1016.0 | |
| 20260905050307 | 62 | 0.0 | 0.0 | 0.00 | 0.00 | 0.00 | 86 | 1015.9 | |
| 20260905045406 | 62 | 0.0 | 0.0 | 0.00 | 0.00 | 0.00 | 86 | 1015.7 | |
| 20260905044444 | 61 | 0.0 | 0.0 | 0.00 | 0.00 | 0.00 | 87 | 1015.5 | |
| 20260905043545 | 61 | 0.0 | 0.0 | 0.00 | 0.00 | 0.00 | 87 | 1015.7 | |
| 20260905042644 | 60 | 0.0 | 0.0 | 0.00 | 0.00 | 0.00 | 87 | 1015.8 | |
| 20260905041741 | 60 | 0.0 | 0.0 | 0.00 | 0.00 | 0.00 | 87 | 1016.1 | |
| 20260905040840 | 59 | 0.0 | 0.0 | 0.00 | 0.00 | 0.00 | 86 | 1016.0 | |
| 20260905035100 | 58 | 0.0 | 0.0 | 0.00 | 0.00 | 0.00 | 86 | 1015.9 | |
| 20260905034139 | 58 | 0.0 | 0.0 | 0.00 | 0.00 | 0.00 | 86 | 1015.8 | |
| 20260905033238 | 58 | 0.0 | 0.0 | 0.00 | 0.00 | 0.00 | 85 | 1015.8 | |
| 20260905032339 | 58 | 0.0 | 0.0 | 0.00 | 0.00 | 0.00 | 85 | 1015.8 | |
| 20260905031437 | 58 | 0.0 | 0.0 | 0.00 | 0.00 | 0.00 | 85 | 1015.4 | |
| 20260905030619 | 58 | 0.0 | 0.0 | 0.00 | 0.00 | 0.00 | 85 | 1015.5 | |
| 20260905025635 | 59 | 0.0 | 0.0 | 0.00 | 0.00 | 0.00 | 84 | 1015.5 | |
| 20260905024734 | 59 | 0.0 | 0.0 | 0.00 | 0.00 | 0.00 | 84 | 1015.7 | |
| 20260905023836 | 59 | 0.0 | 0.0 | 0.00 | 0.00 | 0.00 | 83 | 1015.7 | |
| 20260905022033 | 60 | 0.0 | 0.0 | 0.00 | 0.00 | 0.00 | 83 | 1015.8 | |
| 20260905021134 | 60 | 0.0 | 0.0 | 0.00 | 0.00 | 0.00 | 83 | 1015.7 | |
| 20260905020233 | 60 | 0.0 | 1.0 | 0.00 | 0.00 | 0.00 | 82 | 1015.5 | |
| 20260905015332 | 60 | 0.0 | 0.0 | 0.00 | 0.00 | 0.00 | 82 | 1015.7 | |
| 20260905014431 | 60 | 0.0 | 0.0 | 0.00 | 0.00 | 0.00 | 81 | 1015.7 | |
| 20260905013529 | 60 | 0.0 | 0.0 | 0.00 | 0.00 | 0.00 | 81 | 1015.8 | |
| 20260905012629 | 60 | 0.0 | 0.0 | 0.00 | 0.00 | 0.00 | 80 | 1015.9 | |
| 20260905011730 | 61 | 0.0 | 0.0 | 0.00 | 0.00 | 0.00 | 80 | 1015.8 | |
| 20260905010827 | 61 | 0.0 | 0.0 | 0.00 | 0.00 | 0.00 | 80 | 1015.7 | |
| 20260905005026 | 61 | 0.0 | 0.0 | 0.00 | 0.00 | 0.00 | 79 | 1015.8 | |
| 20260905004125 | 62 | 0.0 | 0.0 | 0.00 | 0.00 | 0.00 | 78 | 1015.8 | |
| 20260905003246 | 62 | 0.0 | 0.0 | 0.00 | 0.00 | 0.00 | 78 | 1015.7 | |
| 20260905002323 | 62 | 0.0 | 0.0 | 0.00 | 0.00 | 0.00 | 78 | 1015.9 | |
| 20260905001423 | 63 | 0.0 | 1.0 | 0.00 | 0.00 | 0.00 | 78 | 1015.5 | |
| 20260905000522 | 63 | 0.0 | 0.0 | 0.00 | 0.00 | 0.00 | 78 | 1015.7 | |
| 20260904235622 | 63 | 0.0 | 2.0 | 0.00 | 0.00 | 0.00 | 78 | 1015.8 | |
| 20260904234721 | 63 | 135 | 1.0 | 2.0 | 0.00 | 0.00 | 0.00 | 78 | 1015.8 |
| 20260904233820 | 63 | 0.0 | 1.0 | 0.00 | 0.00 | 0.00 | 76 | 1015.7 | |
| 20260904232019 | 64 | 0.0 | 0.0 | 0.00 | 0.00 | 0.00 | 76 | 1015.7 | |
| 20260904231120 | 64 | 0.0 | 1.0 | 0.00 | 0.00 | 0.00 | 76 | 1015.7 | |
| 20260904230239 | 64 | 0.0 | 1.0 | 0.00 | 0.00 | 0.00 | 75 | 1015.7 | |
| 20260904225317 | 64 | 0.0 | 1.0 | 0.00 | 0.00 | 0.00 | 75 | 1015.8 | |
| 20260904224437 | 64 | 0.0 | 0.0 | 0.00 | 0.00 | 0.00 | 75 | 1015.9 | |
| 20260904223515 | 64 | 0.0 | 0.0 | 0.00 | 0.00 | 0.00 | 75 | 1015.7 | |
| 20260904222654 | 64 | 0.0 | 0.0 | 0.00 | 0.00 | 0.00 | 74 | 1015.8 | |
| 20260904221715 | 64 | 0.0 | 0.0 | 0.00 | 0.00 | 0.00 | 73 | 1015.7 | |
| 20260904220813 | 65 | 0.0 | 1.0 | 0.00 | 0.00 | 0.00 | 72 | 1015.9 | |
| 20260904215932 | 65 | 0.0 | 1.0 | 0.00 | 0.00 | 0.00 | 70 | 1016.1 | |
| 20260904214111 | 66 | 0.0 | 0.0 | 0.00 | 0.00 | 0.00 | 70 | 1016.4 | |
| 20260904213210 | 66 | 0.0 | 0.0 | 0.00 | 0.00 | 0.00 | 69 | 1016.3 | |
| 20260904212310 | 67 | 0.0 | 0.0 | 0.00 | 0.00 | 0.00 | 68 | 1016.3 | |
| 20260904211429 | 67 | 0.0 | 0.0 | 0.00 | 0.00 | 0.00 | 68 | 1016.3 | |
| 20260904210509 | 67 | 0.0 | 0.0 | 0.00 | 0.00 | 0.00 | 67 | 1016.3 | |
| 20260904205608 | 67 | 0.0 | 0.0 | 0.00 | 0.00 | 0.00 | 66 | 1016.3 | |
| 20260904204707 | 67 | 0.0 | 0.0 | 0.00 | 0.00 | 0.00 | 65 | 1016.5 | |
| 20260904203806 | 68 | 0.0 | 1.0 | 0.00 | 0.00 | 0.00 | 65 | 1016.2 | |
| 20260904202906 | 68 | 0.0 | 0.0 | 0.00 | 0.00 | 0.00 | 64 | 1016.4 | |
| 20260904201106 | 68 | 0.0 | 0.0 | 0.00 | 0.00 | 0.00 | 64 | 1016.5 | |
| 20260904200204 | 67 | 0.0 | 1.0 | 0.00 | 0.00 | 0.00 | 63 | 1016.3 | |
| 20260904195325 | 68 | 0.0 | 0.0 | 0.00 | 0.00 | 0.00 | 62 | 1016.3 | |
| 20260904194422 | 68 | 0.0 | 1.0 | 0.00 | 0.00 | 0.00 | 62 | 1016.4 | |
| 20260904193522 | 69 | 0.0 | 0.0 | 0.00 | 0.00 | 0.00 | 61 | 1016.5 | |
| 20260904192601 | 69 | 0.0 | 1.0 | 0.00 | 0.00 | 0.00 | 61 | 1016.5 | |
| 20260904191700 | 69 | 0.0 | 1.0 | 0.00 | 0.00 | 0.00 | 60 | 1016.6 | |
| 20260904190800 | 69 | 0.0 | 0.0 | 0.00 | 0.00 | 0.00 | 59 | 1016.6 | |
| 20260904185900 | 70 | 0.0 | 0.0 | 0.00 | 0.00 | 0.00 | 56 | 1016.6 | |
| 20260904184058 | 70 | 0.0 | 0.0 | 0.00 | 0.00 | 0.00 | 55 | 1016.7 | |
| 20260904183157 | 70 | 0.0 | 0.0 | 0.00 | 0.00 | 0.00 | 54 | 1016.6 | |
| 20260904182256 | 71 | 0.0 | 0.0 | 0.00 | 0.00 | 0.00 | 52 | 1016.6 | |
| 20260904181356 | 71 | 0.0 | 0.0 | 0.00 | 0.00 | 0.00 | 50 | 1016.6 | |
| 20260904180456 | 72 | 0.0 | 0.0 | 0.00 | 0.00 | 0.00 | 49 | 1016.7 | |
| 20260904175554 | 72 | 0.0 | 0.0 | 0.00 | 0.00 | 0.00 | 49 | 1016.5 | |
| 20260904174653 | 73 | 0.0 | 0.0 | 0.00 | 0.00 | 0.00 | 48 | 1016.3 | |
| 20260904173813 | 73 | 0.0 | 1.0 | 0.00 | 0.00 | 0.00 | 47 | 1016.2 | |
| 20260904172852 | 74 | 0.0 | 1.0 | 0.00 | 0.00 | 0.00 | 45 | 1016.3 |